DW8201 Weather Reports


Display with metric or nautical units.
time (UTC)temp
F
wind
direction
speed
MPH
gust
MPH
rain 1hr
in
rain 24hr
in
rain mn
in
humidity
%
barometer
mb
20260508050153 49 31 1.0 3.0 0.00 0.01 0.00 89 1015.8
20260508045644 49 320 1.0 3.0 0.00 0.01 0.00 89 1015.9
20260508045139 49 328 1.0 3.0 0.00 0.01 0.00 89 1015.8
20260508044636 49 62 0.0 3.0 0.00 0.01 0.00 89 1015.8
20260508044128 49 53 0.0 1.0 0.00 0.01 0.00 88 1015.7
20260508043624 49 33 0.0 0.0 0.00 0.01 0.00 88 1015.8
20260508043118 49 33 0.0 0.0 0.00 0.01 0.00 88 1015.7
20260508042615 49 59 0.0 0.0 0.00 0.01 0.00 88 1015.7
20260508042107 49 59 0.0 1.0 0.00 0.01 0.00 88 1015.8
20260508041656 49 47 0.0 1.0 0.00 0.01 0.00 88 1015.8
20260508041147 49 47 0.0 2.0 0.00 0.01 0.00 88 1015.7
20260508040643 49 47 0.0 2.0 0.00 0.01 0.00 88 1015.7
20260508040145 49 334 0.0 1.0 0.00 0.01 0.00 87 1015.7
20260508040138 49 60 0.0 1.0 0.00 0.01 0.00 88 1015.7
20260508035122 49 85 0.0 0.0 0.00 0.01 0.00 87 1015.7
20260508034619 49 85 0.0 0.0 0.00 0.01 0.00 87 1015.7
20260508034113 49 91 0.0 0.0 0.00 0.01 0.00 87 1015.6
20260508033609 49 49 0.0 0.0 0.00 0.02 0.00 87 1015.6
20260508033103 49 49 0.0 0.0 0.00 0.02 0.00 87 1015.6
20260508032556 49 48 0.0 3.0 0.00 0.02 0.00 86 1015.6
20260508032142 49 69 0.0 3.0 0.00 0.02 0.00 86 1015.6
20260508031640 49 56 0.0 0.0 0.00 0.02 0.00 86 1015.6
20260508031633 49 43 0.0 0.0 0.00 0.02 0.00 86 1015.7
20260508031332 49 56 0.0 0.0 0.00 0.02 0.00 86 1015.6
20260508030107 49 56 0.0 1.0 0.00 0.02 0.00 86 1015.6
20260508025610 50 45 0.0 2.0 0.00 0.02 0.00 85 1015.5
20260508025102 50 62 0.0 2.0 0.00 0.02 0.00 85 1015.5
20260508024551 50 77 0.0 0.0 0.00 0.02 0.00 85 1015.5
20260508024046 50 77 0.0 0.0 0.00 0.02 0.00 85 1015.5
20260508023634 50 84 0.0 0.0 0.00 0.02 0.00 84 1015.6
20260508023130 50 84 0.0 2.0 0.00 0.02 0.00 84 1015.6
20260508022622 50 84 0.0 2.0 0.00 0.02 0.00 84 1015.6
20260508022115 50 118 0.0 2.0 0.00 0.02 0.00 83 1015.5
20260508021605 51 118 0.0 5.0 0.00 0.02 0.00 83 1015.5
20260508021058 51 134 0.0 5.0 0.00 0.02 0.00 83 1015.5
20260508020554 51 78 0.0 3.0 0.00 0.02 0.00 83 1015.4
20260508020058 51 51 0.0 0.0 0.00 0.02 0.00 82 1015.4
20260508015543 51 63 0.0 0.0 0.00 0.02 0.00 82 1015.4
20260508015034 51 63 0.0 0.0 0.00 0.02 0.00 82 1015.4
20260508014627 51 63 0.0 0.0 0.00 0.02 0.00 82 1015.4
20260508014121 51 55 0.0 0.0 0.00 0.02 0.00 82 1015.5
20260508013615 51 66 0.0 0.0 0.00 0.02 0.00 81 1015.5
20260508013109 51 68 0.0 0.0 0.00 0.02 0.00 82 1015.5
20260508012602 51 68 0.0 0.0 0.00 0.02 0.00 82 1015.5
20260508012056 51 67 0.0 0.0 0.00 0.02 0.00 82 1015.6
20260508011550 51 68 0.0 0.0 0.00 0.02 0.00 81 1015.5
20260508011040 51 67 0.0 0.0 0.00 0.02 0.00 81 1015.5
20260508010531 51 68 0.0 0.0 0.00 0.02 0.00 81 1015.5
20260508010029 51 68 0.0 0.0 0.00 0.02 0.00 81 1015.5
20260508005617 51 68 0.0 0.0 0.00 0.02 0.00 81 1015.6
20260508005109 52 51 0.0 0.0 0.00 0.02 0.00 81 1015.5
20260508004601 52 51 0.0 0.0 0.00 0.02 0.00 81 1015.5
20260508004051 52 51 0.0 0.0 0.00 0.02 0.00 81 1015.6
20260508003543 52 51 0.0 0.0 0.00 0.02 0.00 81 1015.6
20260508003033 52 70 0.0 0.0 0.00 0.02 0.00 81 1015.6
20260508002528 52 75 0.0 0.0 0.00 0.02 0.00 81 1015.6
20260508002020 52 74 0.0 0.0 0.00 0.02 0.00 81 1015.6
20260508001529 52 70 0.0 0.0 0.00 0.02 0.00 81 1015.6
20260508001107 52 70 0.0 0.0 0.00 0.02 0.00 82 1015.6
20260508000601 52 79 0.0 0.0 0.00 0.02 0.00 82 1015.6
20260508000059 52 79 0.0 0.0 0.00 0.02 0.00 82 1015.7
20260507235549 52 99 0.0 0.0 0.00 0.02 0.00 83 1015.8
20260507235039 51 99 0.0 0.0 0.00 0.02 0.00 83 1015.8
20260507234537 51 77 0.0 0.0 0.00 0.02 0.00 85 1015.8
20260507234531 51 99 0.0 0.0 0.00 0.02 0.00 83 1015.8
20260507234022 51 77 0.0 0.0 0.00 0.02 0.00 84 1015.8
20260507233002 51 36 0.0 0.0 0.00 0.02 0.00 86 1015.9
20260507232749 51 10 0.0 0.0 0.00 0.02 0.00 86 1015.8
20260507231958 51 10 0.0 0.0 0.00 0.02 0.00 86 1015.9
20260507231455 51 10 0.0 0.0 0.00 0.02 0.00 86 1015.8
20260507231046 51 10 0.0 0.0 0.00 0.02 0.00 85 1015.8
20260507230545 52 10 0.0 0.0 0.00 0.02 0.00 86 1015.8
20260507230539 51 10 0.0 0.0 0.00 0.02 0.00 85 1015.8
20260507225525 52 10 0.0 0.0 0.00 0.02 0.00 85 1015.9
20260507225016 52 10 0.0 0.0 0.00 0.02 0.00 85 1015.9
20260507224506 52 10 0.0 0.0 0.00 0.02 0.00 85 1015.8
20260507224004 52 10 0.0 0.0 0.00 0.02 0.00 85 1015.9
20260507223958 52 10 0.0 0.0 0.00 0.02 0.00 85 1015.9
20260507222944 52 10 0.0 0.0 0.00 0.02 0.00 84 1015.8
20260507222939 52 10 0.0 0.0 0.00 0.02 0.00 84 1015.9
20260507222527 52 10 0.0 0.0 0.00 0.02 0.00 84 1015.9
20260507221513 52 10 0.0 0.0 0.00 0.02 0.00 84 1015.9
20260507221008 52 10 0.0 0.0 0.00 0.02 0.00 84 1015.9
20260507220449 52 10 0.0 0.0 0.00 0.02 0.00 84 1015.7
20260507215943 52 10 0.0 0.0 0.00 0.02 0.02 84 1015.7
20260507215434 53 10 0.0 0.0 0.00 0.02 0.02 84 1015.6
20260507214929 53 10 0.0 0.0 0.00 0.02 0.02 83 1015.6
20260507214425 53 10 0.0 0.0 0.00 0.02 0.02 83 1015.6
20260507213922 53 10 0.0 0.0 0.00 0.02 0.02 83 1015.6
20260507213515 53 10 0.0 0.0 0.00 0.02 0.02 83 1015.6
20260507213011 53 10 0.0 0.0 0.00 0.02 0.02 83 1015.6
20260507212510 53 10 0.0 0.0 0.00 0.02 0.02 81 1015.5
20260507212505 53 10 0.0 0.0 0.00 0.02 0.02 82 1015.5
20260507212208 53 10 0.0 0.0 0.00 0.02 0.02 82 1015.6
20260507212000 53 10 0.0 0.0 0.00 0.02 0.02 82 1015.6
20260507210446 53 10 0.0 0.0 0.00 0.02 0.02 81 1015.5
20260507210440 53 10 0.0 0.0 0.00 0.02 0.02 81 1015.5
20260507205422 54 10 0.0 0.0 0.00 0.02 0.02 80 1015.5
20260507204914 54 10 0.0 0.0 0.00 0.02 0.02 80 1015.5
20260507204408 54 10 0.0 0.0 0.00 0.02 0.02 80 1015.5
20260507203904 54 10 0.0 0.0 0.00 0.02 0.02 79 1015.4
20260507203401 54 10 0.0 0.0 0.00 0.02 0.02 79 1015.4
20260507202951 54 10 0.0 0.0 0.00 0.02 0.02 79 1015.3
20260507202446 54 10 0.0 0.0 0.00 0.02 0.02 78 1015.3
20260507201932 54 10 0.0 0.0 0.00 0.02 0.02 78 1015.3
20260507201426 55 10 0.0 0.0 0.00 0.02 0.02 77 1015.3
20260507200923 55 10 0.0 0.0 0.00 0.02 0.02 77 1015.2
20260507200918 55 10 0.0 0.0 0.00 0.02 0.02 77 1015.3
20260507195905 55 10 0.0 0.0 0.00 0.02 0.02 77 1015.1
20260507195356 55 10 0.0 0.0 0.00 0.02 0.02 76 1015.1
20260507194851 55 10 0.0 0.0 0.00 0.02 0.02 74 1015.1
20260507194448 56 10 0.0 0.0 0.00 0.02 0.02 72 1015.1
20260507194442 56 10 0.0 0.0 0.00 0.02 0.02 73 1015.1
20260507193425 56 10 0.0 0.0 0.00 0.02 0.02 70 1015.0
20260507192926 56 10 0.0 0.0 0.00 0.02 0.02 70 1015.0
20260507192920 56 10 0.0 0.0 0.00 0.02 0.02 71 1014.9
20260507191903 56 10 0.0 0.0 0.00 0.02 0.02 70 1014.9
20260507191355 57 10 0.0 0.0 0.00 0.02 0.02 69 1014.9
20260507190853 57 10 0.0 0.0 0.00 0.02 0.02 68 1014.9
20260507190849 57 10 0.0 0.0 0.00 0.02 0.02 69 1014.9
20260507190341 57 10 0.0 0.0 0.00 0.02 0.02 68 1014.8
20260507185840 57 10 0.0 0.0 0.00 0.02 0.02 68 1014.9
20260507184922 57 10 0.0 0.0 0.00 0.02 0.02 67 1014.9
20260507184417 58 10 0.0 0.0 0.00 0.02 0.02 66 1015.0
20260507183906 58 10 0.0 0.0 0.00 0.02 0.02 66 1014.9
20260507183358 58 10 0.0 0.0 0.00 0.02 0.02 65 1014.8
20260507182852 58 10 0.0 0.0 0.00 0.02 0.02 65 1014.8
20260507182348 58 10 0.0 0.0 0.00 0.02 0.02 66 1014.8
20260507181851 58 20 0.0 0.0 0.00 0.02 0.02 64 1014.8
20260507181334 58 1 0.0 0.0 0.00 0.02 0.02 64 1014.8
20260507181330 58 6 0.0 0.0 0.00 0.02 0.02 65 1014.8
20260507180414 58 17 0.0 0.0 0.00 0.02 0.02 64 1014.8
20260507175907 59 348 0.0 0.0 0.00 0.02 0.02 63 1014.8
20260507175359 59 15 0.0 0.0 0.00 0.02 0.02 62 1014.8
20260507174852 59 15 0.0 0.0 0.00 0.02 0.02 62 1014.7
20260507174345 59 6 0.0 0.0 0.00 0.02 0.02 62 1014.7
20260507173838 59 1 0.0 2.0 0.00 0.02 0.02 62 1014.6
20260507173331 59 16 0.0 3.0 0.00 0.02 0.02 61 1014.7
20260507172821 59 6 0.0 3.0 0.00 0.02 0.02 60 1014.7
20260507172315 59 345 0.0 0.0 0.00 0.02 0.02 61 1014.6
20260507171809 59 131 0.0 0.0 0.00 0.02 0.02 61 1014.6
20260507171402 59 356 0.0 0.0 0.00 0.02 0.02 60 1014.6
20260507170857 59 356 0.0 0.0 0.00 0.02 0.02 60 1014.6
20260507170350 59 14 0.0 0.0 0.00 0.02 0.02 59 1014.6
20260507165841 59 334 0.0 0.0 0.00 0.02 0.02 59 1014.6
20260507165338 59 303 0.0 0.0 0.00 0.02 0.02 59 1014.6
20260507164828 59 298 0.0 0.0 0.00 0.02 0.02 58 1014.6
20260507164325 59 302 0.0 0.0 0.00 0.02 0.02 58 1014.5
20260507163819 59 304 0.0 0.0 0.00 0.02 0.02 58 1014.6
20260507163311 59 317 0.0 0.0 0.00 0.02 0.02 59 1014.6
20260507162805 59 295 0.0 0.0 0.00 0.02 0.02 58 1014.6
20260507162259 59 295 1.0 4.0 0.00 0.03 0.02 59 1014.6
20260507161759 59 302 1.0 3.0 0.00 0.03 0.02 59 1014.6
20260507161754 59 334 1.0 4.0 0.00 0.03 0.02 59 1014.6
20260507160838 59 356 1.0 4.0 0.00 0.03 0.02 60 1014.6
20260507160336 59 356 1.0 4.0 0.00 0.03 0.02 58 1014.6
20260507160331 59 338 1.0 5.0 0.00 0.03 0.02 57 1014.6
20260507155821 59 305 1.0 5.0 0.00 0.03 0.02 58 1014.6
20260507154805 59 330 1.0 4.0 0.00 0.03 0.02 58 1014.6
20260507154258 59 305 2.0 5.0 0.00 0.03 0.02 59 1014.6
20260507153750 59 306 1.0 5.0 0.00 0.03 0.02 59 1014.6
20260507153250 59 280 0.0 4.0 0.00 0.03 0.02 58 1014.5
20260507153245 59 341 1.0 4.0 0.00 0.03 0.02 60 1014.5
20260507152234 59 6 0.0 3.0 0.00 0.03 0.02 60 1014.5
20260507151821 59 330 2.0 4.0 0.00 0.03 0.02 58 1014.5
20260507151318 59 328 2.0 5.0 0.00 0.03 0.02 59 1014.5
20260507150810 59 322 2.0 5.0 0.00 0.03 0.02 58 1014.5
20260507150259 59 337 1.0 4.0 0.00 0.03 0.02 59 1014.4
20260507145753 59 349 2.0 5.0 0.00 0.03 0.02 61 1014.5
20260507145245 59 6 3.0 5.0 0.00 0.03 0.02 60 1014.5
20260507144746 59 50 2.0 6.0 0.00 0.03 0.02 60 1014.5
20260507144741 59 332 2.0 4.0 0.00 0.03 0.02 59 1014.5
20260507143724 59 334 2.0 6.0 0.00 0.03 0.02 61 1014.5
20260507143219 59 316 2.0 4.0 0.00 0.03 0.02 61 1014.6
20260507142814 59 320 2.0 5.0 0.00 0.03 0.02 60 1014.5
20260507142809 59 324 1.0 5.0 0.00 0.03 0.02 60 1014.5
20260507141752 59 54 3.0 7.0 0.00 0.03 0.02 63 1014.6
20260507141246 59 24 3.0 7.0 0.00 0.03 0.02 62 1014.6
20260507140738 59 317 3.0 6.0 0.00 0.03 0.02 61 1014.6
20260507140231 59 352 3.0 5.0 0.00 0.03 0.02 63 1014.6
20260507135723 59 344 3.0 5.0 0.00 0.03 0.02 63 1014.6
20260507135219 59 313 3.0 7.0 0.00 0.03 0.02 63 1014.7
20260507134715 59 322 3.0 6.0 0.00 0.03 0.02 62 1014.6
20260507134711 59 341 4.0 7.0 0.00 0.03 0.02 61 1014.6
20260507133659 59 356 3.0 6.0 0.00 0.03 0.02 64 1014.7
20260507133252 58 312 3.0 6.0 0.00 0.03 0.02 62 1014.7
20260507132740 59 325 3.0 5.0 0.00 0.03 0.02 65 1014.7
20260507132233 59 325 3.0 6.0 0.00 0.03 0.02 64 1014.7
20260507131723 59 346 3.0 6.0 0.00 0.03 0.02 62 1014.6
20260507131215 59 343 3.0 6.0 0.00 0.03 0.02 64 1014.6
20260507130706 59 286 2.0 6.0 0.00 0.03 0.02 61 1014.6
20260507130215 60 1 1.0 5.0 0.00 0.03 0.02 58 1014.6
20260507125654 60 349 2.0 5.0 0.01 0.03 0.02 58 1014.5
20260507125150 60 356 1.0 5.0 0.01 0.03 0.02 57 1014.6
20260507124649 60 22 0.0 4.0 0.01 0.04 0.02 57 1014.5
20260507124242 60 6 1.0 3.0 0.01 0.04 0.02 54 1014.5
20260507123726 60 20 0.0 3.0 0.01 0.04 0.02 54 1014.5
20260507123224 60 54 0.0 2.0 0.01 0.04 0.02 53 1014.4
20260507123218 60 85 0.0 3.0 0.01 0.04 0.02 53 1014.4
20260507122709 60 51 0.0 3.0 0.01 0.04 0.02 53 1014.4
20260507121651 60 293 1.0 3.0 0.01 0.04 0.02 51 1014.4
20260507121141 60 128 1.0 4.0 0.01 0.04 0.02 53 1014.3
20260507120643 60 68 2.0 5.0 0.01 0.04 0.02 57 1014.3
20260507120236 60 28 3.0 7.0 0.01 0.04 0.02 56 1014.4
20260507115718 61 59 4.0 8.0 0.00 0.03 0.01 57 1014.5
20260507115212 61 16 3.0 8.0 0.00 0.03 0.01 57 1014.4
20260507114707 59 350 0.0 3.0 0.00 0.03 0.01 55 1014.4
20260507114703 60 50 1.0 8.0 0.00 0.03 0.01 57 1014.3
20260507114401 58 325 1.0 4.0 0.00 0.03 0.01 55 1014.4
20260507113144 58 312 2.0 6.0 0.00 0.03 0.01 55 1014.4
20260507112637 58 16 3.0 7.0 0.00 0.03 0.01 57 1014.4
20260507112131 59 339 4.0 8.0 0.00 0.03 0.01 58 1014.4
20260507111629 59 337 4.0 8.0 0.00 0.03 0.01 59 1014.4
20260507111231 60 283 3.0 8.0 0.00 0.03 0.01 55 1014.5
20260507110659 61 6 3.0 8.0 0.00 0.03 0.01 54 1014.5
20260507110151 62 52 2.0 8.0 0.00 0.03 0.01 52 1014.4
20260507105646 61 76 2.0 8.0 0.00 0.03 0.01 58 1014.5
20260507105641 61 112 2.0 8.0 0.00 0.03 0.01 55 1014.5
20260507104626 60 85 2.0 8.0 0.00 0.03 0.01 56 1014.5
20260507104127 60 133 3.0 7.0 0.00 0.03 0.01 56 1014.5
20260507103716 61 40 3.0 7.0 0.00 0.03 0.01 56 1014.5
20260507103607 60 45 2.0 8.0 0.00 0.03 0.01 59 1014.5
20260507103305 60 1 3.0 8.0 0.00 0.03 0.01 59 1014.5
20260507102146 60 338 3.0 9.0 0.00 0.03 0.01 60 1014.5
20260507101638 60 343 3.0 9.0 0.00 0.03 0.01 61 1014.4
20260507101130 59 339 3.0 7.0 0.00 0.03 0.01 62 1014.4
20260507100620 59 344 3.0 7.0 0.00 0.03 0.01 64 1014.5
20260507100118 58 22 2.0 6.0 0.00 0.04 0.01 67 1014.3
20260507095713 58 46 2.0 6.0 0.00 0.04 0.01 65 1014.3
20260507095204 57 329 3.0 6.0 0.00 0.04 0.01 70 1014.3
20260507094654 57 295 3.0 6.0 0.00 0.04 0.01 68 1014.4
20260507094145 57 334 3.0 6.0 0.00 0.04 0.01 69 1014.4
20260507094034 57 295 1.0 5.0 0.00 0.04 0.01 69 1014.4
20260507093114 57 75 2.0 5.0 0.00 0.04 0.01 69 1014.4
20260507093030 57 320 2.0 5.0 0.00 0.04 0.01 69 1014.4
20260507092112 57 303 2.0 5.0 0.00 0.04 0.01 72 1014.3
20260507091700 56 81 3.0 8.0 0.00 0.04 0.01 72 1014.3
20260507091150 56 307 3.0 8.0 0.00 0.04 0.01 71 1014.3
20260507090644 56 330 2.0 6.0 0.00 0.04 0.01 72 1014.3
20260507090133 56 18 3.0 7.0 0.00 0.04 0.01 74 1014.3
20260507085616 56 12 3.0 7.0 0.00 0.04 0.01 70 1014.4
20260507085113 56 356 2.0 9.0 0.00 0.04 0.01 73 1014.3
20260507084708 55 337 3.0 11.0 0.00 0.04 0.01 75 1014.3
20260507084202 55 337 3.0 11.0 0.00 0.04 0.01 75 1014.3
20260507083657 54 276 3.0 7.0 0.00 0.04 0.01 76 1014.3
20260507083545 54 37 3.0 5.0 0.00 0.04 0.01 76 1014.2
20260507083242 54 21 2.0 5.0 0.00 0.04 0.01 75 1014.2
20260507082135 53 35 2.0 5.0 0.00 0.04 0.01 77 1014.2
20260507081626 53 343 2.0 5.0 0.00 0.04 0.01 77 1014.2
20260507081118 53 22 3.0 7.0 0.00 0.04 0.01 79 1014.2
20260507081011 52 325 4.0 7.0 0.00 0.04 0.01 78 1014.2
20260507080113 52 334 2.0 7.0 0.00 0.04 0.01 77 1014.2
20260507075658 52 330 2.0 7.0 0.00 0.04 0.01 80 1014.1
20260507075549 51 43 2.0 8.0 0.00 0.05 0.01 79 1014.1
20260507074643 51 23 3.0 8.0 0.00 0.05 0.01 81 1014.0
20260507074134 51 356 3.0 8.0 0.00 0.05 0.01 80 1014.0
20260507073626 51 290 3.0 6.0 0.00 0.05 0.01 79 1014.0
20260507073119 51 322 3.0 6.0 0.00 0.05 0.01 80 1014.0
20260507073007 50 299 3.0 7.0 0.00 0.05 0.01 81 1013.9
20260507072503 50 12 2.0 8.0 0.00 0.05 0.01 81 1013.9
20260507071956 48 349 3.0 7.0 0.00 0.05 0.01 83 1013.9
20260507071659 50 342 2.0 8.0 0.00 0.05 0.01 81 1013.9
20260507071557 49 6 3.0 5.0 0.00 0.05 0.01 83 1013.8
20260507070734 49 12 2.0 5.0 0.00 0.05 0.01 83 1013.8
20260507070231 48 280 2.0 5.0 0.00 0.05 0.01 83 1013.8
20260507065121 48 326 2.0 7.0 0.00 0.05 0.01 83 1013.8
20260507064612 48 299 1.0 5.0 0.00 0.05 0.01 84 1013.8
20260507064121 47 326 2.0 5.0 0.00 0.05 0.01 84 1013.8
20260507063559 47 337 2.0 6.0 0.00 0.05 0.01 84 1013.8
20260507063453 47 345 2.0 6.0 0.00 0.05 0.01 84 1013.8
20260507062644 47 349 1.0 5.0 0.00 0.05 0.01 85 1013.7
20260507062537 47 352 2.0 6.0 0.00 0.05 0.01 85 1013.7
20260507061631 47 6 3.0 6.0 0.00 0.05 0.01 85 1013.6
20260507061122 47 303 2.0 5.0 0.00 0.05 0.01 85 1013.6
20260507060617 46 301 2.0 5.0 0.00 0.05 0.01 86 1013.6
20260507060112 46 356 2.0 5.0 0.00 0.05 0.01 86 1013.4
20260507055600 46 338 2.0 5.0 0.00 0.05 0.01 86 1013.5
20260507055056 46 340 2.0 5.0 0.00 0.05 0.01 86 1013.5
20260507054944 46 332 1.0 4.0 0.00 0.06 0.01 87 1013.4
20260507054643 46 323 2.0 5.0 0.00 0.05 0.01 87 1013.4
20260507053630 46 346 1.0 3.0 0.00 0.06 0.01 88 1013.4
20260507053521 46 6 1.0 3.0 0.00 0.06 0.01 88 1013.4
20260507052913 46 22 1.0 4.0 0.00 0.06 0.01 88 1013.3
20260507052707 46 278 1.0 3.0 0.00 0.06 0.01 88 1013.4
20260507051558 45 309 1.0 4.0 0.00 0.06 0.01 88 1013.2
20260507051151 46 328 1.0 3.0 0.00 0.06 0.01 88 1013.1
20260507050638 46 328 1.0 4.0 0.00 0.06 0.01 88 1013.0